Location: Borea
(45.6167°N, 23.0167°E)
Time: 10:58:19
(UTC+00:00)

MINOTAUR 4 R/B - Pass Details

Date: 03 February 2023
Orbit: 448 x 453 km, 98.0° (Epoch: 20 March)

Event Time Altitude Azimuth Distance (km) Brightness Sun altitude
Exits shadow 15:45:21 - 63° (ENE) 2,195 6.7 -2.2°
Enters shadow 17:02:49 -32° 9° (N) 7,507 10.0 -15.3°
Maximum altitude 17:20:40 76° 102° (ESE) 469 3.7 -18.4°
